Milwaukee, WI

8:26 PM CST on December 10, 2019 (GMT -0600)
Gen Mitchell International

Weather History for KMKE - September, 2019

Change the Weather History Date:

Wednesday, September 11, 2019

  Actual Average Record
Temperature  
Mean Temperature 74 °F 65 °F  
Max Temperature 89 °F 73 °F 94 °F (1931)
Min Temperature 60 °F 57 °F 38 °F (1943)
Degree Days  
Heating Degree Days 0 3  
Month to date heating degree days 20  
Since 1 July heating degree days 46  
Cooling Degree Days 10 3  
Month to date cooling degree days 41  
Year to date cooling degree days 606  
Growing Degree Days 24 (Base 50)    
Moisture  
Dew Point 64 °F    
Average Humidity 85    
Maximum Humidity 94    
Minimum Humidity 55    
Precipitation  
Precipitation 1.41 in 0.10 in 2.96 in (2000)
Month to date precipitation 1.13  
Year to date precipitation 25.31  
Snow  
Snow - 0.00 in 0.00 in ()
Month to date snowfall 0.0  
Since 1 July snowfall 0.0  
Since 1 September snowfall 0.0  
Snow Depth -    
Sea Level Pressure  
Sea Level Pressure 30.05 in    
Wind  
Wind Speed 7 mph ()    
Max Wind Speed 22 mph    
Max Gust Speed 32 mph    
Visibility 6.6 miles    
Events Fog , Rain , Thunderstorm    
T = Trace of Precipitation, MM = Missing Value Source: Averaged Metar Reports

Daily Weather History Graph

Daily Weather History Graph

Search for Another Location

Airport or City:

Astronomy

Sep. 11, 2019 Rise Set
Actual Time 6:26 AM CDT 7:09 PM CDT
Civil Twilight 5:58 AM CDT 7:37 PM CDT
Nautical Twilight 5:24 AM CDT 8:11 PM CDT
Astronomical Twilight 4:48 AM CDT 8:46 PM CDT
Moon 6:25 PM CDT 3:43 AM CDT
Length of Visible Light 13h 39m
Length of Day
12h 42m
Waxing Gibbous, 95% of the Moon is Illuminated
Sep 11
Waxing Gibbous
Sep 13
Full
Sep 21
Last Quarter
Sep 28
New
Oct 5
First Quarter

Hourly Weather History & Observations

Time (CDT) Temp. Heat Index Dew Point Humidity Pressure Visibility Wind Dir Wind Speed Gust Speed Precip Events Conditions
12:52 AM 71.1 °F - 64.0 °F 78% 30.09 in 10.0 mi Calm Calm - N/A   Scattered Clouds
1:52 AM 69.1 °F - 64.0 °F 84% 30.09 in 10.0 mi Calm Calm - N/A   Scattered Clouds
2:52 AM 68.0 °F - 63.0 °F 84% 30.08 in 10.0 mi Calm Calm - N/A   Scattered Clouds
3:52 AM 68.0 °F - 63.0 °F 84% 30.07 in 10.0 mi Calm Calm - N/A   Mostly Cloudy
4:52 AM 68.0 °F - 64.0 °F 87% 30.06 in 10.0 mi SE 4.6 mph - N/A   Mostly Cloudy
5:52 AM 68.0 °F - 63.0 °F 84% 30.07 in 10.0 mi Calm Calm - N/A   Mostly Cloudy
6:52 AM 70.0 °F - 66.0 °F 87% 30.09 in 10.0 mi Calm Calm - N/A   Mostly Cloudy
7:52 AM 73.0 °F - 68.0 °F 84% 30.08 in 10.0 mi SSW 3.5 mph - N/A   Mostly Cloudy
8:52 AM 75.0 °F - 70.0 °F 84% 30.08 in 9.0 mi South 5.8 mph - N/A   Mostly Cloudy
9:52 AM 79.0 °F - 72.0 °F 79% 30.07 in 10.0 mi SW 6.9 mph - N/A   Mostly Cloudy
10:52 AM 84.0 °F 90.2 °F 73.0 °F 69% 30.06 in 10.0 mi SW 11.5 mph - N/A   Mostly Cloudy
11:52 AM 86.0 °F 93.0 °F 73.0 °F 65% 30.04 in 10.0 mi SW 16.1 mph - N/A   Mostly Cloudy
12:52 PM 89.1 °F 95.0 °F 71.1 °F 55% 30.02 in 10.0 mi SW 16.1 mph 21.9 mph N/A   Mostly Cloudy
1:52 PM 88.0 °F 93.8 °F 71.1 °F 57% 29.99 in 10.0 mi SW 17.3 mph - N/A   Mostly Cloudy
2:40 PM 81.0 °F 83.0 °F 66.0 °F 60% 30.02 in 10.0 mi NNE 16.1 mph 23.0 mph N/A   Mostly Cloudy
2:47 PM 69.8 °F - 62.6 °F 78% 30.01 in 10.0 mi NNE 15.0 mph 29.9 mph N/A   Mostly Cloudy
2:52 PM 70.0 °F - 63.0 °F 78% 30.01 in 10.0 mi NNE 19.6 mph 28.8 mph N/A   Mostly Cloudy
2:59 PM 69.1 °F - 63.0 °F 81% 30.02 in 10.0 mi NNE 17.3 mph 26.5 mph N/A   Mostly Cloudy
3:52 PM 70.0 °F - 64.0 °F 81% 30.00 in 10.0 mi ENE 6.9 mph - N/A   Mostly Cloudy
4:31 PM 68.0 °F - 62.1 °F 81% 30.01 in 10.0 mi North 15.0 mph 23.0 mph N/A   Overcast
4:47 PM 66.2 °F - 62.6 °F 88% 30.03 in 10.0 mi North 20.7 mph 32.2 mph N/A Thunderstorm Overcast
4:52 PM 66.0 °F - 62.1 °F 87% 30.04 in 10.0 mi North 17.3 mph 32.2 mph N/A Thunderstorm Overcast
4:59 PM 66.9 °F - 63.0 °F 87% 30.04 in 10.0 mi North 15.0 mph 27.6 mph N/A Thunderstorm Thunderstorm
5:07 PM 68.0 °F - 63.0 °F 84% 30.04 in 10.0 mi NNE 11.5 mph - N/A Thunderstorm Thunderstorm
5:27 PM 66.0 °F - 62.1 °F 87% 30.03 in 10.0 mi NE 6.9 mph - N/A   Overcast
5:38 PM 66.0 °F - 62.1 °F 87% 30.04 in 2.5 mi East 4.6 mph - 0.04 in Rain Heavy Rain
5:43 PM 66.0 °F - 63.0 °F 90% 30.03 in 1.0 mi NE 6.9 mph - 0.19 in Rain Heavy Rain
5:52 PM 66.9 °F - 64.0 °F 90% 30.03 in 5.0 mi Variable 4.6 mph - 0.40 in Rain , Thunderstorm Light Rain
6:04 PM 66.0 °F - 64.0 °F 93% 30.06 in 1.5 mi NNW 16.1 mph 20.7 mph 0.00 in Rain , Thunderstorm Heavy Thunderstorms and Rain
6:07 PM 66.0 °F - 64.0 °F 93% 30.04 in 0.5 mi North 21.9 mph 27.6 mph 0.06 in Fog , Rain , Thunderstorm Heavy Thunderstorms and Rain
6:49 PM 62.6 °F - 60.8 °F 94% 30.05 in 0.5 mi North 10.4 mph 20.7 mph 0.57 in Rain Light Rain
6:52 PM 62.1 °F - 60.1 °F 93% 30.05 in 0.5 mi North 9.2 mph - 0.57 in Rain Light Rain
7:35 PM 62.1 °F - 60.1 °F 93% 30.03 in 3.0 mi North 4.6 mph - 0.13 in Rain Light Rain
7:38 PM 62.1 °F - 60.1 °F 93% 30.03 in 3.0 mi North 6.9 mph - 0.13 in Rain , Thunderstorm Light Thunderstorms and Rain
7:52 PM 62.1 °F - 60.1 °F 93% 30.04 in 3.0 mi NNW 8.1 mph 17.3 mph 0.13 in Rain , Thunderstorm Light Thunderstorms and Rain
8:00 PM 66.0 °F - 64.0 °F 93% 30.04 in 1.0 mi North 12.7 mph 29.9 mph 0.08 in Thunderstorm Overcast
8:15 PM 66.9 °F - 64.9 °F 93% 30.03 in 1.0 mi Variable 3.5 mph - 0.29 in Rain , Thunderstorm Light Thunderstorms and Rain
8:41 PM 62.1 °F - 60.1 °F 93% 30.05 in 1.0 mi North 10.4 mph - N/A Rain , Thunderstorm Light Rain
8:52 PM 62.1 °F - 60.1 °F 93% 30.07 in 1.0 mi Variable 4.6 mph - 0.30 in Rain , Thunderstorm Light Thunderstorms and Rain
9:20 PM 62.1 °F - 60.1 °F 93% 30.05 in 1.0 mi NNE 13.8 mph - 0.00 in Rain , Thunderstorm Light Rain
9:23 PM 62.1 °F - 60.1 °F 93% 30.05 in 10.0 mi NNE 15.0 mph - 0.00 in Rain , Thunderstorm Light Rain
9:31 PM 62.1 °F - 59.0 °F 90% 30.05 in 9.0 mi NNE 16.1 mph 26.5 mph 0.00 in Rain Light Rain
9:52 PM 60.1 °F - 57.9 °F 93% 30.08 in 1.0 mi NNE 19.6 mph 28.8 mph 0.00 in Rain Light Rain
10:33 PM 60.1 °F - 57.0 °F 90% 30.11 in 1.0 mi NNE 13.8 mph 31.1 mph 0.01 in Rain , Thunderstorm Light Thunderstorms and Rain
10:52 PM 60.1 °F - 57.9 °F 93% 30.10 in 1.0 mi North 17.3 mph 25.3 mph 0.01 in Rain , Thunderstorm Light Thunderstorms and Rain